Location: Milton Keynes
(52.0316°N, 0.7531°W)
Time: 18:17:00
(UTC+00:00)

GENESIS II - Visible Passes

Search period start: 30 November 2023 00:00
Search period end: 10 December 2023 00:00
Orbit: 445 x 508 km, 64.5° (Epoch: 29 November)

Date Brightness Start Highest point End Pass type
(mag) Time Alt. Az. Time Alt. Az. Time Alt. Az.
30 Nov 8.2 06:54:20 10° SE 06:55:27 11° ESE 06:56:35 10° E visible
30 Nov 6.8 16:36:21 10° WNW 16:39:32 25° WSW 16:42:39 10° S visible
03 Dec 6.0 07:03:27 10° SSW 07:07:03 38° ESE 07:10:39 10° NE visible
04 Dec 6.4 06:35:25 10° S 06:38:49 30° ESE 06:42:15 10° ENE visible
05 Dec 6.7 06:07:24 10° S 06:10:34 25° ESE 06:13:45 10° ENE visible
06 Dec 7.0 05:39:28 10° SSE 05:42:19 20° ESE 05:45:11 10° ENE visible
07 Dec 7.2 05:11:38 10° SSE 05:14:02 16° ESE 05:16:28 10° ENE visible
07 Dec 4.1 06:46:32 10° SW 06:50:24 78° NW 06:54:17 10° NE visible
08 Dec 7.3 04:44:00 10° SE 04:45:46 13° ESE 04:47:30 10° E visible
08 Dec 4.2 06:18:06 10° SW 06:21:59 85° SE 06:25:52 10° NE visible
09 Dec 4.4 05:50:02 12° SSW 05:53:32 68° SE 05:57:23 10° NE visible
